User: anonymous
Location: State Camp
(41.2367°N, 77.7828°W)
Time: 09:51:27
(UTC-04:00)
Language:

Cosmos 1674 Rocket - Orbit

View from above orbital plane
View from above orbital plane
View from above satellite
View from above satellite

Ground track
Ground track

The orbit data is extracted from the following two-line orbital elements,

1 15945U 85069B   14272.78301104  .00000566  00000-0  65907-4 0  7796
2 15945 082.5293 341.2636 0018503 315.5279 184.0698 14.83416732574022
Epoch (UTC): 29 September 2014 18:47:32
Eccentricity: 0.0018503
inclination: 82.5293°
perigee height: 605 km
apogee height: 631 km
right ascension of ascending node: 341.2636°
argument of perigee: 315.5279°
revolutions per day: 14.83416732
mean anomaly at epoch: 184.0698°
orbit number at epoch: 57402

The dashed part of the orbit path shows where the satellite is in the earth's shadow,  

DLR